[[{"header":{"parameterUnit":"m.s-1","parameterCategory":1,"la1":30.2991,"la2":30.254,"lo1":-89.0895,"lo2":-89.0444,"dy":0.0017,"dx":0.0017,"nx":28,"ny":28,"refTime":"2026-02-17T03:00:00:Z","depth":0,"parameterNumber":2,"parameterNumberName":"U-component_of_WINDS"},"data":[0,0,0,0,0,0,0,0,0,0,0,0,0,0,0,0,0,0,0,0,0,0,0,0,0,0,0,0,0,0,0,0,0,0,0,0,0,0,0,0,0,0,0,0,0,0,0,0,0,0,0,0,0,0,0,0,0,0,-2.4876,-2.4877,0,-2.5028,-2.503,-2.5032,-2.5086,-2.5085,-2.5084,-2.5084,-2.5246,-2.525,-2.5255,0,0,0,0,0,0,0,0,0,0,0,0,0,-2.4636,-2.4641,-2.4876,-2.4878,-2.4879,-2.5028,-2.503,-2.5032,-2.5086,-2.5085,-2.5084,-2.5084,-2.5244,-2.525,-2.5255,0,0,0,0,0,0,0,0,0,0,0,0,0,-2.476,-2.4642,-2.4875,-2.4924,-2.493,-2.5028,-2.503,-2.5033,-2.5086,-2.5085,-2.5084,-2.5083,-2.5242,-2.5249,-2.5256,-2.5319,0,0,-2.5278,-2.5282,0,0,0,0,0,0,0,0,-2.4753,-2.4769,-2.4915,-2.4921,-2.4927,-2.5037,-2.5005,-2.5129,-2.5086,-2.5027,-2.5084,-2.5083,-2.5177,-2.519,-2.522,-2.5326,-2.5333,-2.5279,-2.5284,-2.5287,-2.5289,0,0,0,0,0,0,0,-2.4744,-2.4762,-2.4936,-2.4917,-2.4925,-2.494,-2.4957,-2.5029,-2.5105,-2.5032,-2.5036,-2.5053,-2.5181,-2.5213,-2.5225,-2.5336,-2.5279,-2.5285,-2.529,-2.5293,-2.5501,-2.5502,0,0,0,0,0,0,-2.4727,-2.4755,-2.4931,-2.4941,-2.4836,-2.4945,-2.4964,-2.5003,-2.5104,-2.5119,-2.5054,-2.5055,-2.5201,-2.5216,-2.5231,-2.531,-2.5287,-2.5293,-2.5298,-2.55,-2.5501,-2.5503,0,0,0,0,0,0,-2.4721,-2.4742,-2.4925,-2.4849,-2.4874,-2.495,-2.4994,-2.5006,-2.5039,-2.5121,-2.5135,-2.5073,-2.5201,-2.522,-2.5296,-2.5316,-2.5297,-2.5303,-2.5499,-2.55,-2.5502,-2.5469,0,0,0,0,0,0,-2.4714,-2.474,-2.4763,-2.4849,-2.4877,-2.4986,-2.4995,-2.501,-2.5051,-2.5054,-2.5143,-2.5157,-2.5202,-2.5285,-2.5303,-2.5326,-2.5309,-2.5497,-2.5499,-2.5502,-2.5469,-2.547,-2.5471,0,0,0,0,0,-2.4706,-2.4749,-2.4763,-2.4785,-2.4907,-2.4987,-2.5004,-2.5053,-2.5052,-2.5077,-2.513,-2.5154,-2.5311,-2.5292,-2.5313,-2.5339,-2.5496,-2.5499,-2.5501,-2.5469,-2.547,-2.5471,0,0,0,0,0,0,-2.4664,-2.4761,-2.4778,-2.485,-2.491,-2.4996,-2.5028,-2.5053,-2.5116,-2.5116,-2.5177,-2.5197,-2.5268,-2.5312,-2.5288,-2.5405,-2.5405,-2.5412,-2.5373,-2.5375,-2.5376,-2.5363,-2.5315,0,0,0,0,0,-2.4663,-2.4718,-2.48,-2.4856,-2.4885,-2.4951,-2.4988,-2.5021,-2.5086,-2.5112,-2.5171,-2.5235,-2.5299,-2.534,-2.5403,-2.5476,-2.5497,-2.5504,-2.5505,-2.5505,-2.551,-2.5553,-2.5557,-2.5511,-2.5511,-2.5511,0,0,-2.4662,-2.4722,-2.4753,-2.4849,-2.4899,-2.4956,-2.4972,-2.5032,-2.5076,-2.5122,-2.5196,-2.5242,-2.5317,-2.5392,-2.5428,-2.543,-2.5528,-2.5509,-2.5508,-2.5513,-2.5556,-2.556,-2.5564,-2.5513,-2.5513,-2.5513,0,0,-2.4689,-2.474,-2.4791,-2.4841,-2.4916,-2.496,-2.4972,-2.5055,-2.5086,-2.5162,-2.5198,-2.5252,-2.5361,-2.5413,-2.5454,-2.5501,-2.5526,-2.5521,-2.5524,-2.5565,-2.5568,-2.5572,-2.5589,-2.5594,-2.5526,-2.5526,-2.5526,0,-2.4679,-2.4764,-2.4815,-2.4873,-2.4914,-2.4958,-2.5011,-2.5058,-2.5151,-2.5179,-2.5181,-2.5318,-2.5372,-2.5459,-2.5471,-2.5503,-2.552,-2.551,-2.5563,-2.5567,-2.5571,-2.5588,-2.5594,-2.5524,-2.5525,-2.5525,-2.5525,0,-2.4748,-2.4807,-2.484,-2.4926,-2.4972,-2.5027,-2.5088,-2.5129,-2.5158,-2.5203,-2.528,-2.5346,-2.5424,-2.5447,-2.5478,-2.554,-2.5539,-2.5551,-2.5553,-2.5574,-2.559,-2.5597,-2.5523,-2.5523,-2.5523,-2.5524,0,0,-2.4752,-2.4865,-2.4876,-2.4916,-2.5002,-2.505,-2.5108,-2.5182,-2.5216,-2.528,-2.533,-2.5422,-2.5434,-2.548,-2.5517,-2.5553,-2.5586,-2.5561,-2.5564,-2.5563,-2.5658,-2.5647,-2.5654,-2.5603,-2.5605,-2.5606,-2.5652,0,-2.4789,-2.4892,-2.494,-2.5023,-2.5078,-2.5121,-2.5172,-2.5232,-2.5275,-2.533,-2.538,-2.5443,-2.5454,-2.5482,-2.552,-2.5573,-2.5606,-2.5571,-2.5652,-2.5655,-2.563,-2.5663,-2.5652,-2.5692,-2.5659,-2.566,-2.5661,0,-2.4846,-2.4907,-2.4994,-2.5074,-2.5099,-2.5144,-2.5216,-2.5268,-2.5337,-2.5366,-2.5418,-2.5454,-2.5518,-2.5516,-2.5607,-2.5582,-2.5619,-2.5651,-2.5654,-2.5662,-2.5658,-2.5672,-2.5706,-2.5711,-2.5672,-2.5671,-2.567,0,-2.4839,-2.4944,-2.5009,-2.5042,-2.5137,-2.5167,-2.5209,-2.5277,-2.5319,-2.5383,-2.541,-2.5482,-2.5521,-2.5577,-2.5631,-2.5625,-2.5717,-2.5719,-2.5744,-2.5743,-2.5761,-2.5758,-2.58,-2.5786,-2.5785,-2.5785,-2.5785,0,-2.4876,-2.4927,-2.5007,-2.5047,-2.5107,-2.5163,-2.5222,-2.5267,-2.5327,-2.5378,-2.5421,-2.5469,-2.5538,-2.5595,-2.5639,-2.5708,-2.5726,-2.5752,-2.5763,-2.5748,-2.5744,-2.5772,-2.577,-2.5787,-2.5787,-2.5786,-2.5786,0,-2.4878,-2.4933,-2.5007,-2.5091,-2.5113,-2.5153,-2.5226,-2.5268,-2.5314,-2.5378,-2.5397,-2.5469,-2.5539,-2.5599,-2.5692,-2.5721,-2.5791,-2.5805,-2.5767,-2.5773,-2.5794,-2.579,-2.5853,-2.5865,-2.5843,-2.5843,-2.5843,0,-2.4896,-2.4937,-2.5024,-2.506,-2.51,-2.5159,-2.5201,-2.5258,-2.5301,-2.5383,-2.5415,-2.5487,-2.5548,-2.5657,-2.572,-2.5791,-2.5806,-2.5824,-2.5817,-2.5801,-2.5806,-2.5802,-2.5807,-2.5823,-2.5823,-2.5823,-2.5823,0,-2.4924,-2.4949,-2.5007,-2.5075,-2.5123,-2.518,-2.5238,-2.5266,-2.5335,-2.5381,-2.5451,-2.5498,-2.5592,-2.5663,-2.5741,-2.5787,-2.5817,-2.5825,-2.5834,-2.5818,-2.5794,-2.5807,-2.5766,-2.5823,-2.5823,-2.5823,-2.5823,-2.5823,-2.4935,-2.4972,-2.5039,-2.5103,-2.5152,-2.5206,-2.5248,-2.5299,-2.5358,-2.5437,-2.5468,-2.554,-2.561,-2.5718,-2.5763,-2.5822,-2.5827,-2.584,-2.5844,-2.5846,-2.5843,-2.5785,-2.5836,-2.5836,-2.5837,-2.5837,-2.5837,0,-2.4964,-2.5009,-2.5066,-2.5145,-2.5195,-2.5218,-2.5284,-2.5325,-2.5386,-2.5448,-2.5506,-2.5588,-2.5657,-2.5725,-2.5799,-2.5833,-2.5848,-2.585,-2.5848,-2.5858,-2.5835,-2.5819,-2.5836,-2.5836,-2.5836,-2.5836,-2.5836,-2.5836,-2.4985,-2.5049,-2.5083,-2.5173,-2.5219,-2.5288,-2.5323,-2.5373,-2.5423,-2.551,-2.5568,-2.5611,-2.5676,-2.5755,-2.582,-2.5839,-2.5864,-2.5861,-2.5883,-2.586,-2.5859,-2.5859,-2.5844,-2.5867,-2.5867,-2.5902,-2.5902,-2.5903]},{"header":{"parameterUnit":"m.s-1","parameterCategory":1,"la1":30.2991,"la2":30.254,"lo1":-89.0895,"lo2":-89.0444,"dy":0.0017,"dx":0.0017,"nx":28,"ny":28,"refTime":"2026-02-17T03:00:00:Z","depth":0,"parameterNumber":3,"parameterNumberName":"V-component_of_WINDS"},"data":[0,0,0,0,0,0,0,0,0,0,0,0,0,0,0,0,0,0,0,0,0,0,0,0,0,0,0,0,0,0,0,0,0,0,0,0,0,0,0,0,0,0,0,0,0,0,0,0,0,0,0,0,0,0,0,0,0,0,3.4996,3.4996,0,3.5037,3.5037,3.5038,3.5049,3.5048,3.5048,3.5048,3.5092,3.5094,3.5095,0,0,0,0,0,0,0,0,0,0,0,0,0,3.4929,3.493,3.4995,3.4996,3.4997,3.5037,3.5037,3.5038,3.5049,3.5048,3.5048,3.5048,3.5092,3.5093,3.5095,0,0,0,0,0,0,0,0,0,0,0,0,0,3.4963,3.4931,3.4995,3.5007,3.5008,3.5037,3.5037,3.5038,3.5049,3.5048,3.5048,3.5047,3.5091,3.5093,3.5095,3.5116,0,0,3.5102,3.5103,0,0,0,0,0,0,0,0,3.4961,3.4966,3.5004,3.5006,3.5008,3.5037,3.503,3.5064,3.5049,3.5033,3.5048,3.5047,3.5074,3.5078,3.5086,3.5118,3.512,3.5102,3.5103,3.5104,3.5105,0,0,0,0,0,0,0,3.4959,3.4964,3.5012,3.5005,3.5007,3.5011,3.5015,3.5037,3.5056,3.5035,3.5035,3.504,3.5075,3.5084,3.5088,3.5121,3.5102,3.5104,3.5105,3.5106,3.5175,3.5176,0,0,0,0,0,0,3.4954,3.4962,3.5011,3.5013,3.4983,3.5012,3.5017,3.5028,3.5055,3.5059,3.504,3.504,3.5081,3.5085,3.5089,3.5117,3.5104,3.5106,3.5107,3.5175,3.5175,3.5176,0,0,0,0,0,0,3.4953,3.4958,3.5009,3.4988,3.4994,3.5014,3.5026,3.5029,3.5038,3.506,3.5063,3.5046,3.5081,3.5086,3.511,3.5119,3.5107,3.5109,3.5174,3.5175,3.5176,3.5172,0,0,0,0,0,0,3.4951,3.4958,3.4965,3.4988,3.4996,3.5028,3.5026,3.503,3.5042,3.5042,3.5066,3.507,3.5081,3.5107,3.5112,3.5122,3.5111,3.5173,3.5174,3.5175,3.5172,3.5173,3.5174,0,0,0,0,0,3.4948,3.4962,3.4965,3.4971,3.5005,3.5028,3.5033,3.5045,3.5042,3.5051,3.5065,3.5069,3.5117,3.5109,3.5115,3.5125,3.5173,3.5174,3.5175,3.5171,3.5173,3.5174,0,0,0,0,0,0,3.494,3.4965,3.4969,3.499,3.5007,3.503,3.504,3.5046,3.5064,3.5063,3.5078,3.5084,3.5107,3.5119,3.5109,3.5149,3.5145,3.5148,3.514,3.5141,3.5142,3.5139,3.5113,0,0,0,0,0,3.4941,3.4957,3.4978,3.4995,3.5003,3.5021,3.5031,3.5039,3.5057,3.5064,3.508,3.5098,3.5118,3.513,3.5149,3.5174,3.518,3.5184,3.5185,3.5186,3.5188,3.5204,3.5206,3.518,3.518,3.518,0,0,3.4942,3.4958,3.4967,3.4994,3.5008,3.5026,3.5026,3.5044,3.5058,3.5067,3.5091,3.5103,3.5125,3.515,3.5161,3.516,3.5197,3.5187,3.5188,3.519,3.5205,3.5208,3.521,3.5181,3.5181,3.518,0,0,3.4954,3.4967,3.4983,3.4997,3.5018,3.503,3.5034,3.5057,3.5065,3.5089,3.5097,3.5115,3.5147,3.5163,3.5175,3.5195,3.5201,3.5201,3.5207,3.5222,3.5224,3.5226,3.5235,3.5238,3.5203,3.5203,3.5203,0,3.4953,3.4979,3.4991,3.5009,3.5022,3.5031,3.5049,3.5063,3.5089,3.5098,3.5096,3.5139,3.5154,3.5183,3.5189,3.5198,3.5204,3.5198,3.5223,3.5225,3.5227,3.5236,3.5239,3.5203,3.5203,3.5203,3.5203,0,3.4978,3.4996,3.5007,3.5032,3.5046,3.5064,3.508,3.5093,3.51,3.5113,3.5138,3.5157,3.5181,3.5189,3.5196,3.522,3.5219,3.522,3.5217,3.5229,3.5238,3.5241,3.5203,3.5203,3.5203,3.5203,0,0,3.4984,3.5017,3.5021,3.5034,3.5059,3.5073,3.5093,3.5116,3.5127,3.5146,3.5164,3.5192,3.5194,3.5208,3.5218,3.5231,3.5248,3.5231,3.5232,3.5234,3.5278,3.5277,3.5281,3.5252,3.5253,3.5253,3.5277,0,3.4999,3.5033,3.5046,3.5074,3.5092,3.5103,3.512,3.5138,3.5151,3.5169,3.5184,3.5204,3.5204,3.5213,3.5227,3.5243,3.5257,3.5242,3.527,3.5271,3.5265,3.5285,3.5284,3.5305,3.528,3.528,3.5281,0,3.5021,3.504,3.507,3.5095,3.5103,3.5118,3.5142,3.5159,3.5181,3.5189,3.5206,3.5215,3.5238,3.5233,3.5266,3.5255,3.5268,3.5278,3.5279,3.5282,3.5277,3.529,3.5312,3.5315,3.5286,3.5285,3.5285,0,3.5024,3.5058,3.508,3.5091,3.512,3.5131,3.5144,3.5165,3.5179,3.52,3.5209,3.5233,3.5246,3.5265,3.5281,3.5276,3.5313,3.5309,3.5322,3.5321,3.5329,3.5328,3.5354,3.5336,3.5336,3.5336,3.5336,0,3.504,3.5059,3.5082,3.5096,3.5118,3.5134,3.5155,3.5169,3.5188,3.5207,3.5217,3.5235,3.5254,3.5275,3.5288,3.5314,3.5319,3.5328,3.5331,3.5327,3.5326,3.5336,3.5335,3.5337,3.5336,3.5336,3.5336,0,3.5047,3.5063,3.5089,3.5115,3.5122,3.5137,3.516,3.5176,3.5189,3.5213,3.5219,3.5241,3.5266,3.5284,3.5316,3.5325,3.5353,3.5356,3.5345,3.5347,3.5359,3.5358,3.5393,3.5399,3.5376,3.5376,3.5376,0,3.5056,3.507,3.5099,3.5111,3.5124,3.5145,3.5159,3.5176,3.5191,3.5218,3.5231,3.5256,3.5277,3.5317,3.5337,3.5362,3.5366,3.5376,3.537,3.5366,3.5368,3.5367,3.5369,3.5377,3.5377,3.5378,3.5378,0,3.5071,3.5079,3.5099,3.5123,3.514,3.5159,3.5179,3.5189,3.521,3.5227,3.5252,3.5268,3.5302,3.5328,3.5355,3.537,3.5378,3.538,3.5384,3.538,3.5374,3.5379,3.5349,3.5379,3.5379,3.5379,3.5379,3.5378,3.508,3.5094,3.5117,3.5139,3.5156,3.5175,3.5191,3.5208,3.5229,3.5257,3.5266,3.5293,3.5317,3.5355,3.537,3.5393,3.5392,3.5398,3.54,3.5402,3.5402,3.537,3.5398,3.5398,3.5398,3.5398,3.5398,0,3.5097,3.5112,3.5133,3.5161,3.5179,3.5185,3.5208,3.5223,3.5246,3.5268,3.5289,3.5319,3.5345,3.5368,3.5395,3.5409,3.5413,3.5416,3.5415,3.5419,3.54,3.5394,3.5412,3.5412,3.5412,3.5412,3.5412,3.5412,3.5108,3.5132,3.5144,3.5178,3.5194,3.5219,3.5232,3.5251,3.5268,3.5301,3.5323,3.5337,3.536,3.539,3.5414,3.5421,3.5431,3.5432,3.5439,3.5421,3.542,3.5418,3.5413,3.5434,3.5434,3.5456,3.5457,3.5457]}]]